[[{"header":{"parameterUnit":"m.s-1","parameterCategory":2,"la1":30.2991,"la2":30.254,"lo1":-89.0895,"lo2":-89.0444,"dy":0.0017,"dx":0.0017,"nx":28,"ny":28,"refTime":"2025-02-04T03:00:00:Z","depth":"0","parameterNumber":2,"parameterNumberName":"U-component_of_CURRENTS"},"data":[0,0,0,0,0,0,0,0,0,0,0,0,0,0,0,0,0,0,0,0,0,0,0,0,0,0,0,0,0,0,0,0,0,0,0,0,0,0,0,0,0,0,0,0,0,0,0,0,0,0,0,0,0,0,0,0,0,0,0.2831,0.2832,0,0.2883,0.2884,0.2884,0.2922,0.2922,0.2922,0.2923,0.2974,0.2975,0.2976,0,0,0,0,0,0,0,0,0,0,0,0,0,0.28,0.28,0.2831,0.2832,0.2833,0.2883,0.2884,0.2885,0.2922,0.2922,0.2922,0.2923,0.2974,0.2975,0.2976,0,0,0,0,0,0,0,0,0,0,0,0,0,0.2829,0.28,0.2831,0.2857,0.286,0.2883,0.2884,0.2885,0.2922,0.2922,0.2923,0.2923,0.2973,0.2975,0.2977,0.2978,0,0,0.2982,0.2982,0,0,0,0,0,0,0,0,0.2827,0.283,0.2853,0.2855,0.2859,0.2896,0.2892,0.2916,0.2922,0.2899,0.2923,0.2923,0.2948,0.2951,0.2961,0.2981,0.2983,0.2982,0.2983,0.2984,0.2984,0,0,0,0,0,0,0,0.2825,0.2828,0.2852,0.2853,0.2857,0.2878,0.2882,0.2896,0.292,0.2901,0.2903,0.2909,0.2949,0.2959,0.2962,0.2984,0.2982,0.2983,0.2984,0.2985,0.3005,0.3005,0,0,0,0,0,0,0.2816,0.2826,0.2851,0.2854,0.2843,0.2878,0.2883,0.2884,0.292,0.2926,0.2908,0.291,0.2956,0.296,0.2964,0.2957,0.2983,0.2985,0.2986,0.3006,0.3005,0.3005,0,0,0,0,0,0,0.2815,0.2817,0.2849,0.2841,0.2847,0.2878,0.2879,0.2885,0.2888,0.2926,0.2932,0.2905,0.2956,0.2962,0.2971,0.296,0.2986,0.2987,0.3006,0.3005,0.3005,0.295,0,0,0,0,0,0,0.2813,0.2816,0.2811,0.284,0.2847,0.285,0.2879,0.2885,0.2891,0.2894,0.2925,0.2931,0.2957,0.2968,0.2973,0.2962,0.2989,0.3007,0.3006,0.3005,0.2952,0.2947,0.2943,0,0,0,0,0,0.2812,0.2797,0.281,0.2813,0.2839,0.2849,0.2854,0.2879,0.289,0.2885,0.291,0.293,0.2966,0.2969,0.2974,0.2964,0.3007,0.3006,0.3005,0.2954,0.2948,0.2943,0,0,0,0,0,0,0.2778,0.28,0.2815,0.2807,0.2823,0.2855,0.2853,0.2869,0.2885,0.2889,0.2923,0.293,0.2935,0.2956,0.2958,0.2968,0.299,0.299,0.295,0.2944,0.294,0.2932,0.299,0,0,0,0,0,0.2768,0.2764,0.2791,0.2784,0.279,0.282,0.2826,0.2843,0.2863,0.2871,0.2892,0.2916,0.2936,0.2944,0.2963,0.2965,0.2995,0.2963,0.2958,0.2954,0.2951,0.3004,0.3004,0.3001,0.3001,0.3001,0,0,0.2752,0.2765,0.2763,0.2777,0.2793,0.2799,0.2824,0.2829,0.2833,0.2873,0.2878,0.2899,0.2933,0.2939,0.2943,0.2954,0.2965,0.2953,0.2949,0.2948,0.3003,0.3003,0.3003,0.3,0.3001,0.3001,0,0,0.2728,0.2731,0.2728,0.2738,0.2758,0.2774,0.277,0.2795,0.2803,0.281,0.2843,0.2856,0.288,0.2905,0.2921,0.2902,0.294,0.2904,0.2875,0.2925,0.2926,0.2927,0.2941,0.2945,0.2902,0.2902,0.2902,0,0.2712,0.2714,0.2726,0.273,0.2735,0.2758,0.2758,0.2768,0.2791,0.2794,0.2803,0.284,0.2866,0.2883,0.2878,0.2891,0.2917,0.2892,0.292,0.2922,0.2924,0.2939,0.2943,0.2899,0.2899,0.29,0.29,0,0.2697,0.2696,0.2691,0.2706,0.2707,0.2707,0.2725,0.2723,0.2733,0.2748,0.2755,0.2789,0.2814,0.2821,0.2844,0.2866,0.2876,0.2909,0.2933,0.2921,0.2937,0.2942,0.2895,0.2896,0.2897,0.2898,0,0,0.2671,0.2681,0.2681,0.2679,0.2696,0.2691,0.2691,0.2697,0.2688,0.2707,0.2703,0.2737,0.2752,0.2771,0.28,0.2837,0.2867,0.2873,0.2878,0.2886,0.2956,0.2889,0.2889,0.2912,0.2913,0.2914,0.2952,0,0.2662,0.2659,0.2666,0.2654,0.2651,0.2662,0.2652,0.2657,0.2663,0.2659,0.2693,0.2701,0.2735,0.2741,0.2783,0.2849,0.2882,0.2852,0.2968,0.297,0.2913,0.2893,0.274,0.2755,0.2957,0.2958,0.2959,0,0.2653,0.2651,0.2642,0.2623,0.262,0.2612,0.2595,0.2592,0.2598,0.2601,0.262,0.2645,0.2685,0.2722,0.2825,0.2806,0.2874,0.2925,0.2929,0.2892,0.2914,0.2806,0.2757,0.2617,0.2967,0.2967,0.2966,0,0.2636,0.2629,0.2617,0.2615,0.2602,0.2589,0.2579,0.2575,0.256,0.257,0.2562,0.2613,0.2633,0.2732,0.282,0.2836,0.293,0.2973,0.2972,0.2968,0.2871,0.2855,0.2699,0.3055,0.3055,0.3055,0.3055,0,0.2625,0.2611,0.2604,0.2597,0.2564,0.2562,0.2526,0.2525,0.2511,0.2485,0.2533,0.2525,0.2642,0.27,0.2802,0.288,0.2922,0.2955,0.2975,0.2842,0.2825,0.2728,0.2693,0.3056,0.3056,0.3056,0.3056,0,0.2612,0.261,0.2592,0.2571,0.2559,0.2537,0.2495,0.2461,0.2463,0.2434,0.2435,0.2467,0.2531,0.2631,0.2771,0.2837,0.2827,0.2958,0.2767,0.2764,0.2626,0.2596,0.2413,0.2388,0.2961,0.296,0.2959,0,0.2605,0.2598,0.2575,0.255,0.2539,0.2503,0.2464,0.2446,0.2409,0.2394,0.2372,0.2409,0.2419,0.2563,0.2673,0.28,0.2741,0.2739,0.2747,0.2572,0.2556,0.2449,0.2436,0.2591,0.2587,0.2584,0.2581,0,0.2585,0.2582,0.2563,0.2516,0.2475,0.2425,0.2373,0.2338,0.2306,0.2282,0.2246,0.2254,0.235,0.2374,0.2514,0.2599,0.2537,0.2674,0.2552,0.2286,0.2103,0.2104,0.2594,0.2551,0.2554,0.2556,0.2558,0.2559,0.2562,0.2541,0.2505,0.245,0.2405,0.2324,0.2246,0.2206,0.2137,0.2056,0.2114,0.2082,0.2122,0.2283,0.2328,0.2263,0.2355,0.2224,0.2213,0.2129,0.2046,0.2446,0.2395,0.2397,0.2398,0.24,0.2401,0,0.2488,0.2459,0.2424,0.2331,0.2245,0.2248,0.2148,0.2054,0.1949,0.1941,0.1896,0.1859,0.1836,0.1878,0.1857,0.1795,0.1776,0.1741,0.1546,0.1582,0.1974,0.1897,0.1661,0.1661,0.1662,0.1662,0.1662,0.1662,0.2439,0.2368,0.2341,0.2177,0.2114,0.1946,0.1872,0.178,0.1737,0.1619,0.1565,0.1576,0.1516,0.137,0.1249,0.1277,0.1213,0.1117,0.1209,0.1445,0.1488,0.1529,0.1444,0.1118,0.1117,0.0727,0.0723,0.0721]},{"header":{"parameterUnit":"m.s-1","parameterCategory":2,"la1":30.2991,"la2":30.254,"lo1":-89.0895,"lo2":-89.0444,"dy":0.0017,"dx":0.0017,"nx":28,"ny":28,"refTime":"2025-02-04T03:00:00:Z","depth":"0","parameterNumber":3,"parameterNumberName":"V-component_of_CURRENTS"},"data":[0,0,0,0,0,0,0,0,0,0,0,0,0,0,0,0,0,0,0,0,0,0,0,0,0,0,0,0,0,0,0,0,0,0,0,0,0,0,0,0,0,0,0,0,0,0,0,0,0,0,0,0,0,0,0,0,0,0,0.0622,0.0622,0,0.0604,0.0603,0.0603,0.0571,0.057,0.0569,0.0569,0.0537,0.0537,0.0537,0,0,0,0,0,0,0,0,0,0,0,0,0,0.0615,0.0615,0.0622,0.0622,0.0622,0.0604,0.0603,0.0603,0.0571,0.057,0.0569,0.0569,0.0538,0.0537,0.0537,0,0,0,0,0,0,0,0,0,0,0,0,0,0.0609,0.0615,0.0622,0.0604,0.0602,0.0604,0.0603,0.0603,0.0571,0.057,0.0569,0.0568,0.0538,0.0537,0.0537,0.0551,0,0,0.0535,0.0535,0,0,0,0,0,0,0,0,0.0609,0.0609,0.0607,0.0605,0.0603,0.0589,0.0589,0.0585,0.0571,0.0582,0.0569,0.0568,0.0555,0.0553,0.055,0.0549,0.0548,0.0535,0.0535,0.0535,0.0535,0,0,0,0,0,0,0,0.061,0.061,0.0614,0.0607,0.0605,0.0592,0.059,0.0588,0.0573,0.0581,0.0579,0.0578,0.0553,0.0551,0.0549,0.0548,0.0535,0.0535,0.0535,0.0534,0.0585,0.0586,0,0,0,0,0,0,0.0615,0.061,0.0615,0.0614,0.0605,0.0593,0.0591,0.0594,0.0573,0.0569,0.0579,0.0577,0.0552,0.055,0.0548,0.058,0.0535,0.0534,0.0534,0.0583,0.0585,0.0587,0,0,0,0,0,0,0.0615,0.0616,0.0616,0.0612,0.0611,0.0594,0.0598,0.0594,0.0589,0.0571,0.0567,0.0577,0.0551,0.0549,0.0559,0.0577,0.0534,0.0534,0.0581,0.0584,0.0586,0.0632,0,0,0,0,0,0,0.0615,0.0616,0.0621,0.0612,0.0611,0.0622,0.0599,0.0594,0.059,0.0587,0.0569,0.0565,0.0551,0.056,0.0558,0.0576,0.0533,0.0579,0.0582,0.0585,0.0628,0.0636,0.0642,0,0,0,0,0,0.0615,0.0623,0.0621,0.0622,0.0618,0.0622,0.0621,0.0605,0.0591,0.0595,0.0589,0.0565,0.0578,0.0561,0.0559,0.0576,0.0578,0.0581,0.0585,0.0625,0.0634,0.0642,0,0,0,0,0,0,0.0623,0.0621,0.0618,0.0626,0.0627,0.0617,0.0616,0.0609,0.0607,0.0601,0.0583,0.058,0.0598,0.0586,0.0567,0.0603,0.0575,0.0579,0.0607,0.0615,0.0622,0.0627,0.0533,0,0,0,0,0,0.0629,0.0633,0.0632,0.0639,0.0639,0.063,0.0628,0.0621,0.0617,0.0614,0.0605,0.0603,0.0614,0.0612,0.0616,0.0631,0.0625,0.0645,0.0651,0.0657,0.0663,0.0687,0.0696,0.0599,0.0599,0.0599,0,0,0.0633,0.0633,0.0635,0.0641,0.0637,0.0645,0.0626,0.0628,0.0637,0.0613,0.0623,0.0626,0.0625,0.0647,0.0653,0.0635,0.0679,0.0662,0.0666,0.0669,0.0692,0.0701,0.0709,0.0601,0.0601,0.06,0,0,0.0644,0.0645,0.0652,0.0656,0.0656,0.0655,0.0658,0.0655,0.0655,0.067,0.0663,0.0682,0.0682,0.0694,0.0698,0.0747,0.0718,0.0746,0.0777,0.0801,0.0809,0.0816,0.0807,0.0812,0.0745,0.0745,0.0745,0,0.0648,0.0658,0.0655,0.0664,0.0668,0.0662,0.0673,0.0679,0.0682,0.0697,0.0678,0.0715,0.0708,0.0751,0.0765,0.0762,0.0758,0.0743,0.0809,0.0816,0.0822,0.0811,0.0816,0.0747,0.0747,0.0747,0.0747,0,0.0664,0.0672,0.0676,0.0686,0.0695,0.0702,0.0712,0.0726,0.0726,0.0736,0.0776,0.0779,0.0801,0.0806,0.0795,0.0845,0.0821,0.0817,0.0785,0.0835,0.0819,0.0824,0.0751,0.075,0.0749,0.0749,0,0,0.067,0.0684,0.0685,0.0692,0.0706,0.0713,0.0742,0.0771,0.0796,0.0809,0.0847,0.0871,0.0876,0.0883,0.0883,0.0899,0.0931,0.0875,0.0875,0.0858,0.0961,0.0933,0.0935,0.0937,0.0939,0.094,0.0927,0,0.0681,0.0697,0.0707,0.0727,0.0735,0.075,0.0778,0.0807,0.083,0.0868,0.0892,0.0925,0.0905,0.0919,0.0938,0.0943,0.0949,0.0933,0.0922,0.0921,0.0885,0.0943,0.0977,0.0969,0.0932,0.0933,0.0933,0,0.0694,0.0701,0.0718,0.0745,0.0752,0.0768,0.0815,0.0841,0.0901,0.0921,0.0966,0.0983,0.1026,0.0995,0.1024,0.1014,0.099,0.0981,0.0981,0.0943,0.0904,0.0917,0.0979,0.0906,0.0941,0.094,0.094,0,0.0689,0.0712,0.0724,0.0731,0.0761,0.078,0.0803,0.0857,0.0894,0.0959,0.0995,0.1044,0.1072,0.1071,0.1057,0.1042,0.1075,0.1051,0.0998,0.0994,0.1016,0.1012,0.1004,0.1062,0.1062,0.1062,0.1062,0,0.0693,0.0702,0.072,0.0723,0.0749,0.0776,0.082,0.0854,0.0922,0.098,0.102,0.1077,0.1094,0.1117,0.1085,0.1065,0.1097,0.1016,0.1003,0.1031,0.1029,0.0959,0.0939,0.1061,0.1062,0.1062,0.1062,0,0.068,0.0693,0.0704,0.0731,0.0743,0.0759,0.082,0.0865,0.0921,0.1001,0.1027,0.1111,0.1149,0.1147,0.1149,0.1101,0.1059,0.1053,0.1069,0.1058,0.093,0.0911,0.092,0.0905,0.0996,0.0995,0.0995,0,0.0673,0.0676,0.0698,0.0711,0.072,0.0753,0.079,0.0853,0.0911,0.1025,0.1072,0.1139,0.1209,0.1202,0.1151,0.11,0.1052,0.1054,0.1035,0.0939,0.0909,0.0901,0.0887,0.1074,0.1075,0.1075,0.1075,0,0.0654,0.0661,0.0669,0.0696,0.0726,0.0773,0.083,0.0878,0.0971,0.1045,0.1153,0.1219,0.124,0.1246,0.1173,0.1126,0.1036,0.1052,0.0975,0.0994,0.0968,0.0941,0.1033,0.1077,0.1076,0.1076,0.1076,0.1076,0.0638,0.0641,0.066,0.0689,0.073,0.0804,0.0853,0.0933,0.103,0.116,0.1208,0.132,0.1325,0.126,0.1162,0.1013,0.1028,0.0964,0.0953,0.0954,0.0939,0.101,0.1024,0.1023,0.1023,0.1023,0.1022,0,0.0619,0.0635,0.0659,0.0706,0.0762,0.0792,0.0893,0.0962,0.1078,0.1198,0.1295,0.1397,0.1343,0.1249,0.1075,0.0944,0.0914,0.0877,0.0885,0.0877,0.0962,0.0963,0.0938,0.0938,0.0939,0.0939,0.0939,0.0939,0.0611,0.0626,0.0647,0.0728,0.0775,0.0868,0.0934,0.1033,0.1137,0.1289,0.1385,0.1472,0.1448,0.1148,0.0911,0.0852,0.0778,0.0786,0.0721,0.0775,0.0782,0.0789,0.0782,0.0721,0.072,0.0663,0.0662,0.0661]}],[{"header":{"parameterUnit":"m.s-1","parameterCategory":2,"la1":30.2991,"la2":30.254,"lo1":-89.0895,"lo2":-89.0444,"dy":0.0017,"dx":0.0017,"nx":28,"ny":28,"refTime":"2025-02-04T03:00:00:Z","depth":"2","parameterNumber":2,"parameterNumberName":"U-component_of_CURRENTS"},"data":[0,0,0,0,0,0,0,0,0,0,0,0,0,0,0,0,0,0,0,0,0,0,0,0,0,0,0,0,0,0,0,0,0,0,0,0,0,0,0,0,0,0,0,0,0,0,0,0,0,0,0,0,0,0,0,0,0,0,0.1391,0.1391,0,0.1385,0.1385,0.1385,0.1425,0.1427,0.1428,0.1429,0.1454,0.1454,0.1453,0,0,0,0,0,0,0,0,0,0,0,0,0,0.1439,0.1438,0.1391,0.1391,0.1391,0.1385,0.1385,0.1385,0.1425,0.1427,0.1428,0.143,0.1455,0.1454,0.1453,0,0,0,0,0,0,0,0,0,0,0,0,0,0.1422,0.1437,0.1391,0.1412,0.1414,0.1385,0.1385,0.1385,0.1425,0.1427,0.1429,0.143,0.1455,0.1454,0.1453,0.1409,0,0,0.1451,0.145,0,0,0,0,0,0,0,0,0.1423,0.142,0.1409,0.1411,0.1413,0.141,0.1411,0.1395,0.1424,0.1419,0.1429,0.1431,0.1442,0.1442,0.1434,0.141,0.1411,0.1451,0.145,0.145,0.145,0,0,0,0,0,0,0,0.1424,0.1421,0.1387,0.1409,0.1411,0.1422,0.1422,0.1408,0.1419,0.1419,0.1423,0.1424,0.1443,0.1434,0.1435,0.1412,0.1451,0.145,0.1449,0.1449,0.1457,0.1458,0,0,0,0,0,0,0.1426,0.1422,0.1387,0.1387,0.1425,0.142,0.142,0.1407,0.1418,0.1422,0.1423,0.1426,0.1435,0.1436,0.1436,0.1481,0.145,0.1449,0.1449,0.1456,0.1457,0.1458,0,0,0,0,0,0,0.1427,0.1422,0.1388,0.1407,0.1404,0.1417,0.1403,0.1406,0.1427,0.1421,0.1425,0.1444,0.1436,0.1437,0.145,0.1478,0.1449,0.1448,0.1456,0.1457,0.1458,0.1508,0,0,0,0,0,0,0.1428,0.1422,0.1421,0.1406,0.1403,0.1387,0.1401,0.1405,0.1424,0.1429,0.1439,0.1442,0.1438,0.1452,0.145,0.1477,0.1447,0.1455,0.1456,0.1457,0.1505,0.1511,0.1515,0,0,0,0,0,0.1429,0.1413,0.142,0.1417,0.1397,0.1387,0.1386,0.1402,0.1423,0.1428,0.1443,0.1444,0.1459,0.1451,0.1449,0.1476,0.1454,0.1456,0.1457,0.1503,0.151,0.1515,0,0,0,0,0,0,0.1426,0.1415,0.1423,0.1404,0.1406,0.1395,0.1399,0.1412,0.1425,0.1441,0.1442,0.1445,0.1466,0.1459,0.145,0.1483,0.146,0.1461,0.1496,0.1502,0.1507,0.1488,0.1447,0,0,0,0,0,0.1425,0.1415,0.141,0.1396,0.14,0.1406,0.1408,0.1421,0.1426,0.1435,0.1445,0.1457,0.1462,0.1475,0.147,0.1482,0.1484,0.1502,0.1506,0.1511,0.1494,0.1532,0.1539,0.1463,0.1463,0.1463,0,0,0.1417,0.1412,0.1406,0.1397,0.14,0.1398,0.1412,0.1421,0.1429,0.1433,0.1454,0.1467,0.1466,0.1484,0.1495,0.149,0.1536,0.1513,0.1516,0.1497,0.1534,0.1541,0.1548,0.1464,0.1464,0.1464,0,0,0.1395,0.1397,0.1386,0.139,0.1402,0.1405,0.1415,0.1423,0.1442,0.1455,0.1469,0.1497,0.1501,0.1514,0.1518,0.1542,0.1553,0.1557,0.1575,0.1613,0.162,0.1625,0.1651,0.1659,0.1569,0.1569,0.1569,0,0.1394,0.1375,0.1382,0.1378,0.1385,0.1412,0.141,0.1422,0.1438,0.1457,0.147,0.1502,0.1509,0.1536,0.1552,0.1553,0.1576,0.1557,0.1621,0.1626,0.1631,0.1656,0.1663,0.1571,0.1571,0.1571,0.1571,0,0.1361,0.136,0.1356,0.1361,0.1367,0.1373,0.1393,0.1415,0.1448,0.1466,0.1508,0.1522,0.1548,0.1565,0.1565,0.1612,0.1617,0.1618,0.1608,0.1642,0.1666,0.1673,0.1575,0.1574,0.1573,0.1573,0,0,0.1331,0.1334,0.1338,0.1345,0.1367,0.1367,0.1389,0.1415,0.1441,0.1478,0.1512,0.1541,0.1575,0.158,0.1604,0.1636,0.1701,0.165,0.1651,0.1677,0.179,0.1668,0.1664,0.173,0.1731,0.1732,0.1798,0,0.1315,0.1305,0.1312,0.1316,0.1318,0.1353,0.1368,0.1401,0.1439,0.1479,0.1525,0.156,0.1576,0.1606,0.1645,0.1681,0.172,0.1682,0.1749,0.175,0.164,0.1667,0.1487,0.1519,0.1805,0.1806,0.1807,0,0.129,0.1289,0.1287,0.1306,0.1312,0.1322,0.1367,0.1385,0.1446,0.148,0.1536,0.1573,0.1633,0.1639,0.1726,0.1711,0.1751,0.1775,0.1779,0.1643,0.1639,0.1528,0.1521,0.1818,0.1817,0.1817,0.1816,0,0.1273,0.1277,0.1279,0.1285,0.1305,0.1323,0.1345,0.1395,0.1424,0.1492,0.1527,0.1597,0.1646,0.1705,0.1773,0.1762,0.1861,0.1853,0.1777,0.177,0.1611,0.1586,0.1907,0.1907,0.1907,0.1907,0.1907,0,0.1254,0.1259,0.1276,0.1278,0.1293,0.1315,0.1348,0.138,0.1436,0.1478,0.1539,0.1585,0.1669,0.174,0.1787,0.1803,0.1884,0.1768,0.1774,0.1622,0.1599,0.1846,0.1838,0.1909,0.1909,0.1908,0.1908,0,0.1235,0.1246,0.125,0.1273,0.1286,0.1301,0.135,0.1372,0.1429,0.1486,0.1514,0.1599,0.1687,0.1761,0.1855,0.1807,0.1841,0.1833,0.1638,0.1616,0.1719,0.1713,0.1726,0.1722,0.1719,0.1716,0.1714,0,0.1223,0.1223,0.1246,0.1255,0.127,0.1299,0.132,0.1371,0.1397,0.1495,0.1519,0.1619,0.167,0.1739,0.1684,0.1703,0.1831,0.1529,0.1442,0.1693,0.1699,0.1698,0.1696,0.1276,0.127,0.1265,0.1262,0,0.1199,0.1214,0.1215,0.1237,0.1258,0.1276,0.1313,0.1329,0.1396,0.1438,0.1509,0.1553,0.158,0.1483,0.1466,0.1456,0.1495,0.1427,0.1772,0.1326,0.1267,0.1273,0.1287,0.122,0.1224,0.1227,0.1229,0.1231,0.1186,0.1184,0.1195,0.1213,0.1237,0.1253,0.1262,0.1288,0.1319,0.1329,0.1406,0.1363,0.1305,0.1144,0.1148,0.1132,0.1222,0.1149,0.1165,0.1186,0.1098,0.1033,0.0927,0.093,0.0932,0.0934,0.0935,0,0.116,0.1169,0.1174,0.1186,0.1194,0.1238,0.1255,0.1236,0.1249,0.1183,0.1185,0.094,0.085,0.089,0.0756,0.0711,0.073,0.0726,0.0746,0.0784,0.0819,0.0716,0.0443,0.0442,0.0442,0.0441,0,0,0.1146,0.1133,0.1132,0.1137,0.1171,0.119,0.1204,0.1154,0.1085,0.0911,0.0785,0.0713,0.0741,0.0521,0.0508,0.0483,0.0643,0.046,0.0838,0.0894,0.0929,0.1024,0.0902,0,0,0,0,0]},{"header":{"parameterUnit":"m.s-1","parameterCategory":2,"la1":30.2991,"la2":30.254,"lo1":-89.0895,"lo2":-89.0444,"dy":0.0017,"dx":0.0017,"nx":28,"ny":28,"refTime":"2025-02-04T03:00:00:Z","depth":"2","parameterNumber":3,"parameterNumberName":"V-component_of_CURRENTS"},"data":[0,0,0,0,0,0,0,0,0,0,0,0,0,0,0,0,0,0,0,0,0,0,0,0,0,0,0,0,0,0,0,0,0,0,0,0,0,0,0,0,0,0,0,0,0,0,0,0,0,0,0,0,0,0,0,0,0,0,-0.0369,-0.0369,0,-0.0393,-0.0393,-0.0393,-0.0425,-0.0426,-0.0426,-0.0427,-0.0488,-0.0489,-0.049,0,0,0,0,0,0,0,0,0,0,0,0,0,-0.035,-0.0351,-0.0369,-0.0369,-0.0369,-0.0393,-0.0393,-0.0393,-0.0425,-0.0426,-0.0426,-0.0427,-0.0488,-0.0489,-0.049,0,0,0,0,0,0,0,0,0,0,0,0,0,-0.0365,-0.0351,-0.0369,-0.0388,-0.039,-0.0393,-0.0393,-0.0393,-0.0425,-0.0426,-0.0427,-0.0427,-0.0487,-0.0489,-0.049,-0.0485,0,0,-0.0496,-0.0496,0,0,0,0,0,0,0,0,-0.0364,-0.0365,-0.0385,-0.0387,-0.0389,-0.0407,-0.0409,-0.0426,-0.0425,-0.0412,-0.0427,-0.0428,-0.0464,-0.0467,-0.0469,-0.0487,-0.049,-0.0496,-0.0497,-0.0498,-0.0498,0,0,0,0,0,0,0,-0.0363,-0.0364,-0.0378,-0.0385,-0.0388,-0.0396,-0.0399,-0.0412,-0.0433,-0.0413,-0.0415,-0.0418,-0.0465,-0.0468,-0.0471,-0.0491,-0.0496,-0.0497,-0.0498,-0.0499,-0.0543,-0.0544,0,0,0,0,0,0,-0.0359,-0.0363,-0.0377,-0.0379,-0.0378,-0.0395,-0.0399,-0.04,-0.0433,-0.0438,-0.0417,-0.0419,-0.0464,-0.0469,-0.0474,-0.0482,-0.0498,-0.0499,-0.05,-0.0543,-0.0544,-0.0544,0,0,0,0,0,0,-0.0359,-0.036,-0.0376,-0.0372,-0.0375,-0.0395,-0.0396,-0.04,-0.0415,-0.0435,-0.0442,-0.043,-0.0465,-0.0471,-0.049,-0.0484,-0.05,-0.0501,-0.0543,-0.0543,-0.0544,-0.049,0,0,0,0,0,0,-0.0358,-0.036,-0.0363,-0.0372,-0.0375,-0.038,-0.0396,-0.04,-0.0415,-0.0419,-0.0448,-0.0454,-0.0466,-0.0488,-0.0492,-0.0487,-0.0503,-0.0543,-0.0543,-0.0544,-0.0492,-0.0489,-0.0486,0,0,0,0,0,-0.0357,-0.0354,-0.0363,-0.0365,-0.0378,-0.038,-0.0382,-0.0399,-0.0415,-0.0417,-0.0438,-0.0454,-0.0493,-0.0489,-0.0494,-0.0489,-0.0543,-0.0543,-0.0543,-0.0493,-0.0489,-0.0486,0,0,0,0,0,0,-0.0346,-0.0357,-0.0368,-0.0368,-0.0376,-0.0385,-0.0388,-0.0403,-0.0421,-0.0428,-0.0452,-0.0459,-0.0473,-0.0492,-0.0487,-0.0505,-0.0522,-0.0524,-0.0482,-0.0479,-0.0476,-0.0448,-0.0504,0,0,0,0,0,-0.0345,-0.0347,-0.0359,-0.0359,-0.0363,-0.0379,-0.0384,-0.0395,-0.041,-0.0419,-0.044,-0.0463,-0.0476,-0.0487,-0.0502,-0.0511,-0.0509,-0.0514,-0.0511,-0.0509,-0.0491,-0.049,-0.0484,-0.0545,-0.0545,-0.0545,0,0,-0.034,-0.0346,-0.0348,-0.0357,-0.0365,-0.036,-0.0384,-0.039,-0.0387,-0.0422,-0.0431,-0.0453,-0.0476,-0.0482,-0.0491,-0.05,-0.0489,-0.0509,-0.0506,-0.049,-0.049,-0.0483,-0.0478,-0.0545,-0.0545,-0.0545,0,0,-0.0321,-0.0337,-0.0331,-0.0335,-0.0346,-0.0353,-0.0357,-0.0372,-0.0381,-0.0391,-0.0413,-0.0426,-0.0458,-0.0461,-0.0469,-0.0461,-0.0473,-0.0481,-0.0442,-0.0441,-0.0435,-0.043,-0.0407,-0.04,-0.048,-0.048,-0.0479,0,-0.0317,-0.0309,-0.0329,-0.0322,-0.0318,-0.0348,-0.0334,-0.0346,-0.0365,-0.0364,-0.039,-0.0414,-0.0439,-0.0429,-0.0429,-0.045,-0.045,-0.0449,-0.0434,-0.0429,-0.0425,-0.0403,-0.0396,-0.0477,-0.0477,-0.0478,-0.0478,0,-0.029,-0.0287,-0.0283,-0.0282,-0.0281,-0.0276,-0.0288,-0.0295,-0.0316,-0.0323,-0.0328,-0.0357,-0.037,-0.0385,-0.0404,-0.0388,-0.0396,-0.0427,-0.0435,-0.0415,-0.0393,-0.0387,-0.0473,-0.0474,-0.0475,-0.0476,0,0,-0.0273,-0.0265,-0.0265,-0.0253,-0.0259,-0.0252,-0.0245,-0.0239,-0.0227,-0.0258,-0.0238,-0.0267,-0.029,-0.0301,-0.033,-0.0329,-0.03,-0.0365,-0.0366,-0.0327,-0.0282,-0.0232,-0.0221,-0.0335,-0.0334,-0.0333,-0.0274,0,-0.0247,-0.0218,-0.0222,-0.0193,-0.0178,-0.0192,-0.0178,-0.0178,-0.0186,-0.0178,-0.0206,-0.0209,-0.0258,-0.0266,-0.0271,-0.0297,-0.0285,-0.0312,-0.032,-0.0319,-0.0266,-0.0212,-0.0261,-0.0208,-0.0268,-0.0267,-0.0267,0,-0.022,-0.0203,-0.0167,-0.014,-0.0135,-0.0125,-0.0099,-0.0092,-0.0089,-0.0095,-0.0103,-0.013,-0.0133,-0.0184,-0.0196,-0.0216,-0.0238,-0.0255,-0.0254,-0.0218,-0.0258,-0.0243,-0.0195,-0.0257,-0.0257,-0.0258,-0.0259,0,-0.0191,-0.0164,-0.0131,-0.0124,-0.0102,-0.0088,-0.0081,-0.0069,-0.0054,-0.0047,-0.0034,-0.005,-0.0058,-0.0091,-0.0132,-0.017,-0.0131,-0.0193,-0.0156,-0.0153,-0.0198,-0.02,-0.0181,-0.0181,-0.0181,-0.0182,-0.0182,0,-0.0159,-0.0135,-0.0119,-0.0103,-0.0064,-0.0061,-0.0024,-0.0018,-0.0,0.0034,0.0002,0.0034,-0.0039,-0.0033,-0.0084,-0.008,-0.0095,-0.0118,-0.0126,-0.018,-0.018,-0.0236,-0.0243,-0.0179,-0.018,-0.018,-0.0181,0,-0.0133,-0.0123,-0.0086,-0.0059,-0.0052,-0.0028,-0.0001,0.003,0.0038,0.0084,0.0086,0.0098,0.0118,0.0076,0.0047,-0.0003,-0.0016,-0.0011,-0.0049,-0.0061,-0.0053,-0.0059,0.0032,0.0034,0.0036,0.0038,0.0039,0,-0.0115,-0.0094,-0.0058,-0.0039,-0.003,-0.0001,0.0025,0.0041,0.0077,0.0134,0.0167,0.0204,0.0273,0.0274,0.0173,0.0135,0.0093,0.0062,-0.0015,-0.0009,-0.0027,-0.0036,-0.0044,-0.0059,-0.0059,-0.0058,-0.0058,0,-0.008,-0.0072,-0.0042,-0.0004,0.0023,0.0064,0.0098,0.0135,0.017,0.0227,0.0319,0.0387,0.0388,0.0347,0.0295,0.0235,0.0061,0.0074,0.0089,-0.0094,-0.0087,-0.0107,-0.0114,-0.0054,-0.0054,-0.0055,-0.0055,-0.0055,-0.0058,-0.0032,-0.0,0.0038,0.0072,0.0128,0.0163,0.0228,0.0309,0.0425,0.0468,0.0562,0.0452,0.0403,0.0314,0.0166,0.0157,0.0065,0.0059,0.0054,0.0045,0.0056,0.0115,0.0116,0.0116,0.0117,0.0117,0,-0.0026,-0.0002,0.0038,0.0088,0.0134,0.0137,0.0215,0.0278,0.039,0.0519,0.064,0.0571,0.0549,0.0425,0.0205,0.0115,0.0054,0.0081,-0.0009,-0.0012,-0.0016,-0.0033,0.002,0.002,0.002,0.002,0,0,-0.0007,0.0037,0.0061,0.0135,0.0159,0.021,0.0252,0.0372,0.0467,0.063,0.0675,0.0776,0.0576,0.0406,0.0252,0.0134,0.0091,0.0113,0.0191,0.0097,0.0096,-0.0036,-0.0065,0,0,0,0,0]}],[{"header":{"parameterUnit":"m.s-1","parameterCategory":2,"la1":30.2991,"la2":30.254,"lo1":-89.0895,"lo2":-89.0444,"dy":0.0017,"dx":0.0017,"nx":28,"ny":28,"refTime":"2025-02-04T03:00:00:Z","depth":"4","parameterNumber":2,"parameterNumberName":"U-component_of_CURRENTS"},"data":[0,0,0,0,0,0,0,0,0,0,0,0,0,0,0,0,0,0,0,0,0,0,0,0,0,0,0,0,0,0,0,0,0,0,0,0,0,0,0,0,0,0,0,0,0,0,0,0,0,0,0,0,0,0,0,0,0,0,-0.0063,-0.0063,0,-0.0057,-0.0057,-0.0058,-0.0062,-0.0062,-0.0062,-0.0062,-0.0048,-0.0048,-0.0048,0,0,0,0,0,0,0,0,0,0,0,0,0,-0.0072,-0.0072,-0.0063,-0.0063,-0.0063,-0.0057,-0.0057,-0.0058,-0.0062,-0.0062,-0.0062,-0.0062,-0.0048,-0.0048,-0.0048,0,0,0,0,0,0,0,0,0,0,0,0,0,-0.007,-0.0072,-0.0063,-0.0062,-0.0062,-0.0057,-0.0057,-0.0058,-0.0062,-0.0062,-0.0062,-0.0062,-0.0049,-0.0048,-0.0048,-0.0046,0,0,-0.0046,-0.0046,0,0,0,0,0,0,0,0,-0.007,-0.007,-0.0063,-0.0062,-0.0062,-0.0058,-0.0055,-0.0052,-0.0062,-0.0065,-0.0062,-0.0062,-0.0049,-0.0049,-0.0052,-0.0045,-0.0045,-0.0046,-0.0046,-0.0046,-0.0045,0,0,0,0,0,0,0,-0.007,-0.007,-0.0064,-0.0062,-0.0062,-0.006,-0.006,-0.0055,-0.0059,-0.0065,-0.0064,-0.006,-0.0049,-0.0052,-0.0051,-0.0044,-0.0046,-0.0046,-0.0045,-0.0045,0.0024,0.0026,0,0,0,0,0,0,-0.0066,-0.007,-0.0064,-0.0063,-0.0063,-0.0059,-0.0059,-0.0062,-0.006,-0.0058,-0.006,-0.006,-0.0053,-0.0052,-0.0051,-0.0003,-0.0046,-0.0045,-0.0045,0.0023,0.0025,0.0026,0,0,0,0,0,0,-0.0066,-0.0066,-0.0064,-0.0064,-0.0063,-0.0059,-0.0061,-0.0061,-0.0054,-0.0055,-0.0055,-0.005,-0.0053,-0.0051,-0.004,-0.0005,-0.0045,-0.0044,0.0021,0.0023,0.0026,0.0063,0,0,0,0,0,0,-0.0067,-0.0066,-0.0063,-0.0064,-0.0063,-0.0058,-0.0061,-0.0061,-0.005,-0.005,-0.0047,-0.0047,-0.0053,-0.0041,-0.0039,-0.0005,-0.0044,0.0019,0.0022,0.0025,0.0059,0.0066,0.0071,0,0,0,0,0,-0.0067,-0.0069,-0.0063,-0.0062,-0.006,-0.0058,-0.0057,-0.0056,-0.005,-0.0048,-0.0043,-0.0046,-0.002,-0.004,-0.0038,-0.0003,0.0018,0.0021,0.0025,0.0057,0.0065,0.0071,0,0,0,0,0,0,-0.0077,-0.007,-0.0063,-0.0064,-0.0056,-0.0057,-0.0059,-0.0048,-0.0043,-0.0042,-0.004,-0.004,-0.0013,-0.0013,-0.0034,0.0029,0.0004,0.0008,0.0029,0.0036,0.0042,0.0067,-0.0044,0,0,0,0,0,-0.0074,-0.0072,-0.0064,-0.0063,-0.0063,-0.0056,-0.0052,-0.0046,-0.0042,-0.004,-0.0025,-0.0011,0.0001,0.0013,0.002,0.0047,0.0039,0.0077,0.0083,0.0088,0.0112,0.0114,0.0122,0.0038,0.0038,0.0038,0,0,-0.0079,-0.0073,-0.0072,-0.0064,-0.0064,-0.0056,-0.0055,-0.005,-0.0033,-0.0038,-0.0009,0.0005,0.0011,0.0041,0.0055,0.0047,0.0105,0.0093,0.0097,0.0118,0.0119,0.0127,0.0134,0.004,0.004,0.0039,0,0,-0.0087,-0.0083,-0.0083,-0.0074,-0.0062,-0.0055,-0.0048,-0.0031,-0.002,0.001,0.0015,0.0051,0.0074,0.0091,0.0099,0.0145,0.0131,0.0158,0.0215,0.0217,0.0223,0.0229,0.0212,0.0216,0.0168,0.0168,0.0168,0,-0.0088,-0.0087,-0.0082,-0.0074,-0.0067,-0.0051,-0.0045,-0.0031,-0.0002,0.0024,0.0025,0.0095,0.0099,0.0142,0.017,0.016,0.0153,0.0181,0.0223,0.0229,0.0234,0.0215,0.0219,0.017,0.017,0.017,0.0169,0,-0.0094,-0.0087,-0.0089,-0.0072,-0.0062,-0.0057,-0.0034,-0.0005,0.0024,0.0059,0.0119,0.0137,0.0189,0.02,0.0203,0.026,0.0239,0.022,0.02,0.0245,0.0222,0.0225,0.0173,0.0172,0.0172,0.0171,0,0,-0.0115,-0.0096,-0.0096,-0.0082,-0.006,-0.0051,-0.0022,0.0018,0.0058,0.0112,0.0167,0.0221,0.0266,0.0281,0.0296,0.0316,0.0344,0.0303,0.0302,0.0278,0.0341,0.0291,0.0289,0.0332,0.0333,0.0334,0.0302,0,-0.0121,-0.0108,-0.0096,-0.0075,-0.0069,-0.0039,-0.0006,0.0042,0.0086,0.0149,0.0199,0.0259,0.0283,0.0322,0.035,0.0342,0.0359,0.0354,0.0309,0.0308,0.0252,0.0294,0.0339,0.0304,0.0305,0.0305,0.0306,0,-0.0132,-0.0119,-0.0107,-0.0064,-0.0058,-0.0033,0.0026,0.0067,0.0152,0.0192,0.0273,0.0313,0.0382,0.0379,0.041,0.0407,0.0398,0.0383,0.038,0.0331,0.0266,0.0256,0.0312,0.0311,0.0311,0.031,0.031,0,-0.0152,-0.0125,-0.0114,-0.0103,-0.0054,-0.0027,0.0018,0.0095,0.0139,0.0239,0.0281,0.0359,0.0402,0.0412,0.0414,0.0419,0.0412,0.0395,0.0336,0.0331,0.0366,0.036,0.0416,0.0416,0.0416,0.0416,0.0416,0,-0.0161,-0.0151,-0.0115,-0.0106,-0.0069,-0.0019,0.004,0.0098,0.0183,0.024,0.0324,0.0359,0.0419,0.0424,0.0416,0.0386,0.0411,0.0363,0.0331,0.0379,0.0376,0.0366,0.0361,0.0415,0.0415,0.0415,0.0415,0,-0.0182,-0.0164,-0.0147,-0.0098,-0.0079,-0.0039,0.0044,0.0094,0.0182,0.0249,0.0287,0.037,0.0385,0.04,0.0398,0.038,0.0349,0.0327,0.0371,0.0337,0.0266,0.0263,0.027,0.0268,0.0266,0.0265,0.0264,0,-0.0189,-0.0185,-0.0151,-0.0136,-0.0112,-0.0051,-0.0008,0.0088,0.0136,0.0237,0.0262,0.0316,0.0356,0.0318,0.0329,0.0298,0.0294,0.0278,0.0306,0.0289,0.0257,0.0256,0.0256,0.0262,0.0261,0.0261,0.026,0,-0.0204,-0.0197,-0.0183,-0.0158,-0.0122,-0.0081,-0.001,0.0021,0.0132,0.0187,0.0248,0.0275,0.0283,0.0292,0.0276,0.0249,0.0292,0.0262,0.0266,0.0292,0.0279,0.0249,0.025,0.0255,0.0256,0.0256,0.0257,0,-0.0216,-0.0213,-0.02,-0.0171,-0.0139,-0.0101,-0.0062,0.0003,0.0066,0.0184,0.0182,0.0231,0.0276,0.0262,0.023,0.0219,0.022,0.0218,0.0224,0.023,0.0232,0.0211,0.0153,0,0,0,0,0,-0.0221,-0.0219,-0.0209,-0.0177,-0.0149,-0.0127,-0.0061,-0.0018,0.0065,0.0103,0.0157,0.0166,0.0179,0.0192,0.0171,0.0182,0.0199,0.0153,0.0194,0.0226,0.0232,0.0238,0,0,0,0,0,0,-0.0226,-0.0222,-0.0218,-0.0188,-0.0168,-0.013,-0.009,-0.0036,-0.0002,0.0076,0.0086,0.0135,0.0143,0.0184,0.0161,0.016,0.0177,0.0174,0.0173,0.0223,0.0228,0.0233,0.0241,0,0,0,0,0]},{"header":{"parameterUnit":"m.s-1","parameterCategory":2,"la1":30.2991,"la2":30.254,"lo1":-89.0895,"lo2":-89.0444,"dy":0.0017,"dx":0.0017,"nx":28,"ny":28,"refTime":"2025-02-04T03:00:00:Z","depth":"4","parameterNumber":3,"parameterNumberName":"V-component_of_CURRENTS"},"data":[0,0,0,0,0,0,0,0,0,0,0,0,0,0,0,0,0,0,0,0,0,0,0,0,0,0,0,0,0,0,0,0,0,0,0,0,0,0,0,0,0,0,0,0,0,0,0,0,0,0,0,0,0,0,0,0,0,0,0.042,0.042,0,0.0437,0.0437,0.0437,0.0454,0.0455,0.0455,0.0456,0.0491,0.0491,0.0492,0,0,0,0,0,0,0,0,0,0,0,0,0,0.0394,0.0394,0.042,0.042,0.042,0.0437,0.0437,0.0437,0.0454,0.0455,0.0455,0.0456,0.0491,0.0491,0.0492,0,0,0,0,0,0,0,0,0,0,0,0,0,0.0406,0.0395,0.042,0.0432,0.0434,0.0437,0.0437,0.0437,0.0454,0.0455,0.0455,0.0456,0.049,0.0491,0.0492,0.0486,0,0,0.0495,0.0495,0,0,0,0,0,0,0,0,0.0405,0.0407,0.043,0.0431,0.0433,0.0446,0.0441,0.0455,0.0454,0.0445,0.0456,0.0456,0.0478,0.048,0.0479,0.0488,0.0489,0.0495,0.0495,0.0496,0.0496,0,0,0,0,0,0,0,0.0405,0.0406,0.0425,0.043,0.0432,0.0435,0.0437,0.0444,0.0457,0.0445,0.0447,0.0452,0.0479,0.0478,0.048,0.049,0.0495,0.0496,0.0496,0.0497,0.0501,0.05,0,0,0,0,0,0,0.0406,0.0405,0.0424,0.0425,0.0422,0.0435,0.0437,0.044,0.0456,0.046,0.0451,0.0452,0.0477,0.0479,0.0482,0.0493,0.0496,0.0497,0.0497,0.0501,0.0501,0.05,0,0,0,0,0,0,0.0405,0.0407,0.0424,0.0417,0.042,0.0435,0.0437,0.044,0.0454,0.0461,0.0465,0.0465,0.0477,0.048,0.0497,0.0494,0.0497,0.0498,0.0502,0.0501,0.05,0.0505,0,0,0,0,0,0,0.0404,0.0407,0.0415,0.0417,0.042,0.043,0.0437,0.044,0.0456,0.0458,0.0474,0.0477,0.0478,0.0496,0.0498,0.0495,0.0498,0.0502,0.0501,0.0501,0.0505,0.0505,0.0504,0,0,0,0,0,0.0403,0.0406,0.0415,0.0418,0.0429,0.043,0.0432,0.0443,0.0456,0.0459,0.0473,0.0477,0.0492,0.0497,0.0499,0.0497,0.0502,0.0501,0.0501,0.0506,0.0505,0.0504,0,0,0,0,0,0,0.0394,0.0409,0.0418,0.0425,0.0431,0.0434,0.0441,0.0451,0.0464,0.0472,0.048,0.0484,0.0494,0.0494,0.0499,0.0493,0.0494,0.0494,0.0497,0.0496,0.0496,0.0498,0.0499,0,0,0,0,0,0.0398,0.0409,0.0417,0.0424,0.0428,0.0438,0.0444,0.0452,0.0462,0.0469,0.0485,0.0491,0.0488,0.0494,0.0495,0.05,0.0484,0.0495,0.0495,0.0494,0.0496,0.0457,0.0453,0.0497,0.0497,0.0497,0,0,0.0397,0.0408,0.0414,0.0425,0.0432,0.044,0.0443,0.0454,0.0464,0.0471,0.0497,0.0496,0.0489,0.049,0.0493,0.0494,0.0474,0.0493,0.0493,0.0495,0.0455,0.0451,0.0447,0.0496,0.0497,0.0497,0,0,0.0398,0.041,0.042,0.0429,0.0445,0.0447,0.0454,0.0468,0.0477,0.0495,0.0496,0.0496,0.0508,0.0496,0.049,0.0486,0.0472,0.0484,0.0484,0.0446,0.0442,0.0438,0.0417,0.0412,0.0483,0.0483,0.0483,0,0.0399,0.0413,0.0422,0.0435,0.0444,0.0454,0.0463,0.047,0.0492,0.0498,0.0506,0.0506,0.0506,0.0489,0.0486,0.0486,0.0465,0.049,0.0445,0.0441,0.0437,0.0417,0.041,0.0483,0.0483,0.0483,0.0483,0,0.0407,0.0424,0.0429,0.0451,0.0458,0.0467,0.0477,0.0493,0.0508,0.0515,0.0516,0.0508,0.0504,0.0498,0.0494,0.0463,0.0458,0.0449,0.0448,0.0433,0.0412,0.0406,0.0483,0.0483,0.0483,0.0483,0,0,0.0393,0.0428,0.0433,0.0449,0.0469,0.0475,0.0491,0.05,0.051,0.0523,0.0521,0.0513,0.0508,0.0499,0.0485,0.0455,0.0413,0.0442,0.044,0.0424,0.0336,0.0321,0.0312,0.0391,0.039,0.0389,0.0334,0,0.0397,0.0426,0.044,0.0466,0.0477,0.0493,0.0506,0.0519,0.0523,0.0526,0.0509,0.0505,0.0506,0.0496,0.0465,0.0422,0.0395,0.043,0.0351,0.0349,0.0339,0.0303,0.0385,0.0329,0.0328,0.0327,0.0326,0,0.0399,0.0419,0.0447,0.0478,0.0484,0.0507,0.0523,0.0537,0.0537,0.0534,0.0522,0.0506,0.0471,0.0468,0.0394,0.0413,0.0379,0.0348,0.0345,0.0324,0.0321,0.0346,0.0314,0.0315,0.0316,0.0317,0.0317,0,0.0384,0.0422,0.0447,0.046,0.0494,0.0517,0.0541,0.0552,0.0557,0.0543,0.053,0.0491,0.0464,0.0412,0.0357,0.0368,0.0268,0.0273,0.0232,0.0231,0.0262,0.0266,0.022,0.022,0.022,0.022,0.022,0,0.0378,0.0399,0.0454,0.0469,0.0502,0.053,0.0557,0.0567,0.0569,0.0558,0.054,0.0498,0.0445,0.0384,0.0341,0.0261,0.0254,0.0224,0.0208,0.0266,0.0272,0.0258,0.0263,0.0218,0.0218,0.0219,0.0219,0,0.036,0.0393,0.0425,0.0478,0.0499,0.053,0.058,0.0592,0.0594,0.057,0.0562,0.0497,0.0412,0.036,0.0263,0.0238,0.0168,0.0145,0.0216,0.0206,0.0166,0.0172,0.0092,0.0091,0.009,0.0089,0.0089,0,0.0353,0.037,0.0433,0.0459,0.0492,0.0544,0.0575,0.0603,0.06,0.0555,0.0527,0.0452,0.0401,0.0257,0.0204,0.0124,0.012,0.0099,0.0132,0.0156,0.0148,0.0156,0.0163,0.0087,0.0087,0.0086,0.0086,0,0.0333,0.0364,0.0391,0.0446,0.0494,0.0531,0.0573,0.0563,0.0569,0.0571,0.0478,0.0412,0.0312,0.0225,0.0167,0.011,0.0118,0.0089,0.0091,0.0122,0.0149,0.0144,0.0152,0.0083,0.0083,0.0084,0.0084,0,0.0322,0.0338,0.0381,0.0428,0.0479,0.0501,0.0527,0.0521,0.0522,0.0479,0.0438,0.0351,0.0308,0.0215,0.015,0.0101,0.0098,0.0102,0.0104,0.0107,0.0132,0.017,0.0086,0,0,0,0,0,0.0308,0.0327,0.036,0.0405,0.0451,0.0486,0.0511,0.0527,0.0525,0.046,0.0454,0.0361,0.0255,0.0201,0.0147,0.0136,0.0094,0.0073,0.01,0.0064,0.0068,0.0094,0,0,0,0,0,0,0.0301,0.0331,0.0347,0.0378,0.0407,0.0453,0.0473,0.0472,0.0434,0.0423,0.036,0.0357,0.0249,0.0285,0.0146,0.0131,0.0143,0.0033,0.0032,0.0061,0.0065,0.0068,0.0096,0,0,0,0,0]}]]